Location: Aalen
(48.8330°N, 10.1000°E)
Time: 03:04:30
(UTC+01:00)

BlueWalker 3 - Pass Details

Date: 10 December 2022
Orbit: 499 x 517 km, 53.2° (Epoch: 26 January)

Event Time Altitude Azimuth Distance (km) Brightness Sun altitude
Rises 17:43:01 0° 295° (WNW) 2,635 6.3 -12.5°
Reaches altitude 10° 17:45:14 10° 293° (WNW) 1,742 5.4 -12.8°
Maximum altitude 17:49:09 67° 211° (SSW) 555 2.3 -13.4°
Drops below altitude 10° 17:53:01 10° 128° (SE) 1,720 4.3 -14.0°
Enters shadow 17:53:21 - 128° (SE) 1,853 4.5 -14.1°
